FW1217 Weather Reports


time (UTC)temp
C
wind
direction
speed
KPH
gust
KPH
rain 1hr
cm
rain 24hr
cm
rain mn
cm
humidity
%
barometer
mb
20260507081510 4 223 0.0 0.0 0.00 0.10 0.00 90 1015.5
20260507080009 4 223 0.0 0.0 0.00 0.20 0.00 90 1015.5
20260507074511 5 223 0.0 0.0 0.00 0.20 0.00 90 1015.5
20260507073009 5 223 0.0 0.0 0.00 0.20 0.00 90 1015.6
20260507071515 5 223 0.0 0.0 0.00 0.20 0.00 90 1015.5
20260507070017 5 223 0.0 0.0 0.00 0.38 0.00 91 1015.4
20260507064512 5 223 0.0 0.0 0.00 0.38 0.00 90 1015.4
20260507063010 5 223 0.0 0.0 0.00 0.38 0.00 90 1015.4
20260507061513 5 223 0.0 0.0 0.00 0.38 0.00 90 1015.4
20260507060009 5 223 0.0 0.0 0.00 0.56 0.00 90 1015.7
20260507054511 6 223 0.0 0.0 0.00 0.56 0.00 89 1015.6
20260507053010 5 223 0.0 0.0 0.00 0.56 0.00 88 1015.8
20260507051507 6 223 0.0 0.0 0.00 0.56 0.00 88 1016.0
20260507050034 6 223 0.0 0.0 0.00 0.56 0.00 88 1015.8
20260507044513 6 223 0.0 0.0 0.00 0.56 0.00 87 1016.0
20260507043010 6 223 0.0 0.0 0.00 0.56 0.00 86 1015.9
20260507041511 6 223 0.0 0.0 0.00 0.56 0.00 85 1015.6
20260507040007 6 223 0.0 0.0 0.00 0.64 0.56 84 1015.8
20260507034510 7 223 0.0 0.0 0.00 0.64 0.56 83 1015.8
20260507033007 7 223 0.0 0.0 0.00 0.64 0.56 82 1016.0
20260507031507 7 223 0.0 0.0 0.00 0.64 0.56 80 1016.1
20260507030007 8 223 0.0 0.0 0.00 0.71 0.56 78 1016.0
20260507024507 8 223 0.0 0.0 0.00 0.71 0.56 76 1016.1
20260507023010 9 223 0.0 0.0 0.00 0.71 0.56 74 1016.0
20260507021517 10 223 0.0 0.0 0.00 0.71 0.56 72 1015.9
20260507020026 10 223 0.0 0.0 0.00 0.91 0.56 70 1015.6
20260507014507 10 223 0.0 0.0 0.00 0.91 0.56 69 1015.4
20260507013008 10 223 0.0 0.0 0.00 0.91 0.56 70 1015.5
20260507011516 10 223 0.0 0.0 0.00 0.91 0.56 69 1015.5
20260507010021 10 223 0.0 1.6 0.00 0.94 0.56 67 1015.4
20260507004507 10 223 0.0 4.8 0.00 0.94 0.56 65 1015.1
20260507003009 11 223 0.0 3.2 0.00 0.94 0.56 63 1014.8
20260507001508 11 221 1.6 6.4 0.00 0.94 0.56 60 1014.6
20260507000005 12 245 6.4 11.3 0.00 0.94 0.56 58 1014.5
20260506234509 12 252 3.2 11.3 0.00 0.94 0.56 58 1014.4
20260506233008 12 193 3.2 6.4 0.00 0.94 0.56 58 1014.4
20260506231511 12 258 3.2 8.0 0.00 0.94 0.56 57 1014.4
20260506230010 12 248 1.6 8.0 0.00 0.99 0.56 57 1014.5
20260506224508 13 251 6.4 12.9 0.00 0.99 0.56 56 1014.9
20260506223015 12 264 3.2 9.7 0.00 0.99 0.56 59 1014.9
20260506221509 13 257 4.8 14.5 0.00 0.99 0.56 58 1014.9
20260506220022 13 231 1.6 12.9 0.00 1.19 0.56 58 1014.8
20260506214510 13 271 4.8 14.5 0.00 1.19 0.56 55 1014.2
20260506213007 13 236 6.4 14.5 0.00 1.19 0.56 57 1014.1
20260506211509 13 284 4.8 12.9 0.00 1.19 0.56 60 1013.8
20260506210007 13 224 1.6 8.0 0.00 1.19 0.56 60 1013.8
20260506204507 13 265 4.8 12.9 0.00 1.19 0.56 59 1013.7
20260506203021 13 331 6.4 12.9 0.00 1.19 0.56 58 1013.7
20260506201511 15 227 4.8 14.5 0.00 1.19 0.56 59 1013.6
20260506200010 15 234 6.4 14.5 0.00 1.19 0.56 57 1013.4
20260506194512 15 267 3.2 12.9 0.00 1.19 0.56 58 1013.4
20260506193005 15 237 4.8 16.1 0.00 1.19 0.56 56 1013.5
20260506191511 15 238 6.4 12.9 0.00 1.19 0.56 57 1013.3
20260506190008 15 32 3.2 14.5 0.00 1.19 0.56 60 1013.2
20260506184511 15 250 4.8 17.7 0.00 1.19 0.56 58 1013.5
20260506183009 15 205 3.2 11.3 0.00 1.19 0.56 59 1013.4
20260506181528 14 245 3.2 19.3 0.00 1.19 0.56 60 1013.6
20260506180009 15 250 3.2 17.7 0.00 1.19 0.56 59 1013.7
20260506174508 14 277 8.0 17.7 0.00 1.19 0.56 57 1013.6
20260506173005 13 216 3.2 17.7 0.00 1.19 0.56 62 1013.7
20260506171512 14 123 3.2 9.7 0.00 1.19 0.56 60 1013.7
20260506170026 13 298 4.8 17.7 0.00 1.19 0.56 63 1013.9
20260506164509 13 184 3.2 12.9 0.00 1.19 0.56 66 1013.5
20260506163008 13 65 4.8 14.5 0.00 1.19 0.56 64 1013.7
20260506161534 13 249 4.8 11.3 0.00 1.19 0.56 63 1013.8
20260506160010 13 239 1.6 9.7 0.00 1.19 0.56 71 1013.6
20260506154531 12 121 3.2 14.5 0.00 1.19 0.56 72 1013.6
20260506153008 11 211 1.6 12.9 0.00 1.19 0.56 71 1013.2
20260506151507 11 249 6.4 12.9 0.00 1.19 0.56 72 1012.9
20260506150031 11 234 3.2 11.3 0.00 1.19 0.56 73 1012.8
20260506144511 11 247 1.6 11.3 0.00 1.19 0.56 77 1012.9
20260506143030 10 322 3.2 12.9 0.00 1.19 0.56 79 1012.8
20260506141506 10 223 1.6 12.9 0.00 1.19 0.56 80 1012.8
20260506140011 10 246 4.8 11.3 0.00 1.19 0.56 81 1012.5
20260506134527 9 211 1.6 8.0 0.00 1.19 0.56 83 1011.9
20260506133011 8 38 1.6 12.9 0.00 1.19 0.56 84 1011.6
20260506131528 8 290 3.2 12.9 0.00 1.19 0.56 88 1011.6
20260506130025 8 246 3.2 14.5 0.00 1.19 0.56 90 1011.6
20260506124508 8 191 3.2 8.0 0.00 1.19 0.56 91 1011.4
20260506123028 8 239 4.8 12.9 0.00 1.19 0.56 92 1011.4
20260506121508 7 57 0.0 8.0 0.00 1.19 0.56 93 1010.6
20260506120007 7 203 3.2 8.0 0.00 1.19 0.56 93 1010.5
20260506114538 7 192 1.6 9.7 0.00 1.19 0.56 93 1010.5
20260506113009 7 234 3.2 12.9 0.00 1.19 0.56 93 1010.2
20260506111509 7 194 3.2 8.0 0.00 1.19 0.56 93 1010.1
20260506110007 7 194 3.2 9.7 0.00 1.19 0.56 93 1009.4
20260506104508 7 246 3.2 12.9 0.00 1.19 0.56 93 1009.2
20260506103026 7 209 1.6 9.7 0.00 1.19 0.56 93 1009.2
20260506101513 7 232 0.0 4.8 0.00 1.19 0.56 93 1009.2
20260506100026 7 186 3.2 8.0 0.00 1.19 0.56 93 1008.8
20260506094524 7 226 1.6 8.0 0.00 1.19 0.56 93 1008.3
20260506093008 7 169 0.0 11.3 0.05 1.19 0.56 94 1008.3
20260506091528 7 211 3.2 12.9 0.08 1.19 0.56 93 1008.5
20260506090009 7 195 1.6 16.1 0.10 1.19 0.56 93 1008.2
20260506084516 7 201 4.8 14.5 0.15 1.19 0.56 93 1008.0
20260506083026 7 229 3.2 16.1 0.10 1.14 0.51 93 1008.3